Location: Nitra
(0.0000°N, 18.0833°E)
Time: 06:06:41
(UTC+01:00)

Aureole 3 - Pass Details

Date: 24 January 2021
Orbit: 381 x 1231 km, 82.5° (Epoch: 04 March)

Event Time Altitude Azimuth Distance (km) Brightness Sun altitude
Rises 18:23:31 0° 359° (N) 2,254 6.3 -5.6°
Reaches altitude 10° 18:25:24 10° 1° (N) 1,435 5.3 -6.0°
Maximum altitude 18:28:25 75° 86° (E) 447 2.7 -6.7°
Drops below altitude 10° 18:31:57 10° 172° (S) 1,664 5.9 -7.6°
Sets 18:34:16 0° 174° (S) 2,666 7.0 -8.1°
